Hourly Weather Allende

Today, 7 March, Sunday

Time Temperature Precipitation Wind Pressure Humidity
00:00 +23°C° 0.1 mm 6 mps 764 mmHg 81%
01:00 +22°C° 0 mm 6 mps 764 mmHg 81%
02:00 +22°C° 0 mm 6 mps 763 mmHg 81%
03:00 +22°C° 0 mm 5 mps 763 mmHg 81%
04:00 +22°C° 0 mm 5 mps 763 mmHg 80%
05:00 +22°C° 0 mm 5 mps 763 mmHg 80%
06:00 +22°C° 0 mm 5 mps 763 mmHg 80%
07:00 +23°C° 0 mm 5 mps 764 mmHg 80%
08:00 +23°C° 0 mm 5 mps 765 mmHg 80%
09:00 +25°C° 0 mm 5 mps 766 mmHg 80%
10:00 +25°C° 0.1 mm 5 mps 766 mmHg 78%
11:00 +25°C° 0.1 mm 5 mps 766 mmHg 76%
12:00 +26°C° 0.1 mm 5 mps 766 mmHg 74%
13:00 +26°C° 0.1 mm 5 mps 765 mmHg 74%
14:00 +26°C° 0.1 mm 5 mps 765 mmHg 74%
15:00 +26°C° 0.1 mm 5 mps 764 mmHg 74%
16:00 +25°C° 0 mm 5 mps 764 mmHg 76%
17:00 +23°C° 0 mm 5 mps 764 mmHg 79%
18:00 +23°C° 0 mm 5 mps 764 mmHg 82%
19:00 +23°C° 0 mm 5 mps 765 mmHg 80%
20:00 +23°C° 0 mm 5 mps 766 mmHg 78%
21:00 +23°C° 0 mm 5 mps 767 mmHg 77%
22:00 +22°C° 0 mm 5 mps 767 mmHg 80%
23:00 +21°C° 0 mm 5 mps 767 mmHg 83%

Tomorrow, 8 March, Monday

Time Temperature Precipitation Wind Pressure Humidity
00:00 +21°C° 0 mm 4 mps 767 mmHg 86%
01:00 +21°C° 0 mm 4 mps 766 mmHg 86%
02:00 +21°C° 0 mm 4 mps 766 mmHg 86%
03:00 +21°C° 0 mm 3 mps 765 mmHg 86%
04:00 +21°C° 0.1 mm 3 mps 765 mmHg 87%
05:00 +20°C° 0.1 mm 3 mps 766 mmHg 88%
06:00 +20°C° 0.1 mm 3 mps 766 mmHg 89%
07:00 +21°C° 0 mm 4 mps 767 mmHg 85%
08:00 +23°C° 0 mm 4 mps 767 mmHg 82%
09:00 +25°C° 0 mm 4 mps 768 mmHg 79%
10:00 +25°C° 0 mm 5 mps 767 mmHg 75%
11:00 +26°C° 0 mm 5 mps 767 mmHg 72%
12:00 +27°C° 0 mm 5 mps 767 mmHg 68%
13:00 +27°C° 0.1 mm 6 mps 767 mmHg 69%
14:00 +27°C° 0.1 mm 6 mps 766 mmHg 71%
15:00 +26°C° 0.1 mm 7 mps 765 mmHg 72%
16:00 +26°C° 0.1 mm 6 mps 766 mmHg 76%
17:00 +24°C° 0.1 mm 6 mps 766 mmHg 79%
18:00 +23°C° 0.1 mm 5 mps 766 mmHg 83%
19:00 +23°C° 0.2 mm 5 mps 766 mmHg 83%
20:00 +23°C° 0.2 mm 5 mps 767 mmHg 84%
21:00 +22°C° 0.2 mm 4 mps 767 mmHg 85%
22:00 +22°C° 0.3 mm 5 mps 767 mmHg 86%
23:00 +22°C° 0.3 mm 5 mps 767 mmHg 88%

Day after tomorrow, 9 March, Tuesday

Time Temperature Precipitation Wind Pressure Humidity
00:00 +22°C° 0.3 mm 5 mps 767 mmHg 89%
01:00 +22°C° 0.6 mm 4 mps 766 mmHg 90%
02:00 +21°C° 0.6 mm 4 mps 766 mmHg 90%
03:00 +21°C° 0.6 mm 4 mps 765 mmHg 91%
04:00 +21°C° 0.7 mm 4 mps 765 mmHg 90%
05:00 +21°C° 0.7 mm 4 mps 765 mmHg 90%
06:00 +21°C° 0.7 mm 4 mps 765 mmHg 89%
07:00 +22°C° 0.3 mm 4 mps 766 mmHg 87%
08:00 +23°C° 0.3 mm 4 mps 766 mmHg 85%
09:00 +25°C° 0.3 mm 4 mps 767 mmHg 83%
10:00 +25°C° 0.3 mm 4 mps 766 mmHg 83%
11:00 +25°C° 0.3 mm 4 mps 766 mmHg 83%
12:00 +25°C° 0.3 mm 3 mps 766 mmHg 83%
13:00 +26°C° 0.1 mm 4 mps 765 mmHg 79%
14:00 +27°C° 0.1 mm 5 mps 764 mmHg 75%
15:00 +27°C° 0.1 mm 5 mps 763 mmHg 71%
16:00 +26°C° 0 mm 5 mps 763 mmHg 75%
17:00 +25°C° 0 mm 5 mps 764 mmHg 79%
18:00 +23°C° 0 mm 5 mps 764 mmHg 82%
19:00 +23°C° 0 mm 5 mps 764 mmHg 84%
20:00 +22°C° 0 mm 5 mps 765 mmHg 86%
21:00 +22°C° 0 mm 4 mps 765 mmHg 88%
22:00 +22°C° 0 mm 4 mps 765 mmHg 89%
23:00 +21°C° 0 mm 4 mps 765 mmHg 91%

10 March, Wednesday

Time Temperature Precipitation Wind Pressure Humidity
00:00 +21°C° 0 mm 4 mps 765 mmHg 92%
01:00 +21°C° 0 mm 4 mps 764 mmHg 93%
02:00 +21°C° 0 mm 3 mps 763 mmHg 93%
03:00 +20°C° 0 mm 3 mps 763 mmHg 93%
04:00 +20°C° 0.1 mm 3 mps 763 mmHg 93%
05:00 +20°C° 0.1 mm 2 mps 763 mmHg 94%
06:00 +20°C° 0.1 mm 2 mps 763 mmHg 94%
07:00 +21°C° 0.1 mm 2 mps 763 mmHg 90%
08:00 +23°C° 0.1 mm 2 mps 763 mmHg 87%
09:00 +25°C° 0.1 mm 3 mps 764 mmHg 84%
10:00 +26°C° 0.2 mm 3 mps 763 mmHg 79%
11:00 +27°C° 0.2 mm 3 mps 763 mmHg 75%
12:00 +28°C° 0.2 mm 3 mps 763 mmHg 70%
13:00 +28°C° 0.1 mm 3 mps 762 mmHg 70%
14:00 +28°C° 0.1 mm 3 mps 761 mmHg 71%
15:00 +28°C° 0.1 mm 4 mps 760 mmHg 71%
16:00 +27°C° 0 mm 4 mps 760 mmHg 75%
17:00 +26°C° 0 mm 4 mps 760 mmHg 79%
18:00 +25°C° 0 mm 4 mps 761 mmHg 83%
19:00 +23°C° 0 mm 4 mps 761 mmHg 85%
20:00 +22°C° 0 mm 4 mps 761 mmHg 86%
21:00 +22°C° 0 mm 3 mps 762 mmHg 88%
22:00 +22°C° 0 mm 4 mps 762 mmHg 88%
23:00 +22°C° 0 mm 4 mps 762 mmHg 89%

11 March, Thursday

Time Temperature Precipitation Wind Pressure Humidity
00:00 +22°C° 0 mm 4 mps 762 mmHg 89%
01:00 +22°C° 0.1 mm 3 mps 761 mmHg 89%
02:00 +22°C° 0.1 mm 3 mps 761 mmHg 89%
03:00 +23°C° 0.1 mm 2 mps 761 mmHg 89%
04:00 +23°C° 0.1 mm 2 mps 761 mmHg 90%
05:00 +23°C° 0.1 mm 2 mps 761 mmHg 91%
06:00 +21°C° 0.1 mm 2 mps 761 mmHg 92%
07:00 +24°C° 0 mm 3 mps 761 mmHg 88%
08:00 +25°C° 0 mm 3 mps 762 mmHg 85%
09:00 +26°C° 0 mm 4 mps 762 mmHg 81%
10:00 +26°C° 0 mm 3 mps 762 mmHg 79%
11:00 +27°C° 0 mm 3 mps 761 mmHg 76%
12:00 +28°C° 0 mm 3 mps 761 mmHg 74%
13:00 +28°C° 0 mm 3 mps 760 mmHg 74%
14:00 +28°C° 0 mm 3 mps 759 mmHg 74%
15:00 +28°C° 0 mm 3 mps 758 mmHg 74%
16:00 +27°C° 0 mm 3 mps 758 mmHg 77%
17:00 +27°C° 0 mm 3 mps 758 mmHg 81%
18:00 +26°C° 0 mm 3 mps 758 mmHg 84%
19:00 +25°C° 0 mm 3 mps 759 mmHg 86%
20:00 +24°C° 0 mm 3 mps 759 mmHg 89%
21:00 +23°C° 0 mm 2 mps 760 mmHg 91%
22:00 +22°C° 0 mm 3 mps 760 mmHg 92%
23:00 +24°C° 0 mm 3 mps 760 mmHg 93%

12 March, Friday

Time Temperature Precipitation Wind Pressure Humidity
00:00 +24°C° 0 mm 3 mps 760 mmHg 93%
01:00 +22°C° 0 mm 3 mps 760 mmHg 94%
02:00 +22°C° 0 mm 3 mps 759 mmHg 94%
03:00 +22°C° 0 mm 3 mps 759 mmHg 94%
04:00 +22°C° 0 mm 3 mps 759 mmHg 94%
05:00 +22°C° 0 mm 3 mps 759 mmHg 94%
06:00 +22°C° 0 mm 3 mps 760 mmHg 94%
07:00 +24°C° 0 mm 3 mps 760 mmHg 90%
08:00 +26°C° 0 mm 3 mps 760 mmHg 86%
09:00 +27°C° 0 mm 3 mps 761 mmHg 82%
10:00 +28°C° 0 mm 2 mps 761 mmHg 80%
11:00 +28°C° 0 mm 2 mps 760 mmHg 78%
12:00 +29°C° 0 mm 1 mps 760 mmHg 77%
13:00 +29°C° 0 mm 2 mps 759 mmHg 75%
14:00 +30°C° 0 mm 2 mps 758 mmHg 73%
15:00 +30°C° 0 mm 2 mps 757 mmHg 71%
16:00 +29°C° 0 mm 2 mps 757 mmHg 76%
17:00 +28°C° 0 mm 2 mps 757 mmHg 81%
18:00 +27°C° 0 mm 2 mps 757 mmHg 86%
19:00 +26°C° 0 mm 2 mps 757 mmHg 88%
20:00 +25°C° 0 mm 2 mps 758 mmHg 90%
21:00 +24°C° 0 mm 2 mps 758 mmHg 93%
22:00 +24°C° 0 mm 2 mps 758 mmHg 93%
23:00 +24°C° 0 mm 2 mps 759 mmHg 93%
Show more